Observations
| Time | Sensor | AQI | SAQ | Temp °C | Hum % | Pres Pa | CO μg/m³ | H₂S μg/m³ | NO μg/m³ | NO₂ μg/m³ | O₃ μg/m³ | SO₂ μg/m³ | CO₂e PPM | VOC PPM | PM1 μg/m³ | PM2.5 μg/m³ | PM4 μg/m³ | PM10 μg/m³ | TPS µm |
|---|---|---|---|---|---|---|---|---|---|---|---|---|---|---|---|---|---|---|---|
| Tuesday 11 August 2026 | |||||||||||||||||||
| 19:38 | Trim Patrick St | 3 | 29.7 | 31 | 69,306 | 0 | 38.29 | 0.56 | 33.01 | 65.82 | 23.11 | 4.57 | 10.03 | 11.03 | |||||
| 19:37 | Trim Market St | 3 | 28.7 | 31 | 66,145 | 0 | 10.55 | 0.73 | 25.15 | 62.04 | 0 | 2.85 | 5.96 | 6.56 | |||||
| 19:37 | Trim Patrick St | 3 | 29.8 | 31 | 69,298 | 0 | 38.69 | 0.55 | 31.46 | 60.89 | 22.44 | 3.71 | 10.02 | 11.02 | |||||
| 19:36 | Trim Patrick St | 3 | 29.9 | 31 | 69,318 | 0 | 44.01 | 0.53 | 37.92 | 64.79 | 23.23 | 4.57 | 10.81 | 11.89 | |||||
| 19:35 | Trim Patrick St | 3 | 30 | 31 | 69,312 | 0 | 43.37 | 0.56 | 42.74 | 64.76 | 23.62 | 3.71 | 10.83 | 11.92 | |||||
| 19:35 | Trim Market St | 3 | 28.7 | 31 | 66,125 | 0 | 10.85 | 0.73 | 25.73 | 68.29 | 0 | 2.85 | 7.59 | 8.38 | |||||
| 19:34 | Trim Patrick St | 3 | 30 | 31 | 69,308 | 0 | 42.32 | 0.57 | 41.19 | 60.79 | 22.78 | 3.71 | 10.04 | 11.04 | |||||
| 19:34 | Trim Market St | 3 | 28.8 | 31 | 66,131 | 0 | 11.06 | 0.72 | 24.13 | 61.38 | 0 | 2.14 | 5.97 | 6.57 | |||||
| 19:33 | Trim Patrick St | 3 | 30.2 | 30 | 69,294 | 0 | 41 | 0.57 | 37.14 | 65.2 | 23.3 | 6.29 | 12.49 | 13.73 | |||||
| 19:33 | Trim Market St | 3 | 28.9 | 31 | 66,135 | 0 | 9.66 | 0.7 | 25.96 | 63.23 | 0 | 2.85 | 5.98 | 6.57 | |||||
| 19:32 | Trim Patrick St | 3 | 30.3 | 31 | 69,310 | 0 | 42.21 | 0.56 | 29.56 | 77.18 | 24 | 3.71 | 11.66 | 12.82 | |||||
| 19:32 | Trim Market St | 3 | 28.9 | 31 | 66,143 | 0 | 10.95 | 0.7 | 23.61 | 62.23 | 0 | 2.14 | 5.43 | 5.98 | |||||
| 19:31 | Trim Patrick St | 3 | 30.4 | 30 | 69,328 | 0 | 41.29 | 0.55 | 46.7 | 55.43 | 22.75 | 5.43 | 11.7 | 12.87 | |||||
| 19:31 | Trim Market St | 3 | 29 | 31 | 66,147 | 0 | 12.04 | 0.69 | 24.1 | 67.47 | 0 | 2.14 | 4.9 | 5.39 | |||||
| 19:30 | Trim Patrick St | 3 | 30.5 | 30 | 69,353 | 0 | 43.41 | 0.53 | 30.25 | 67.07 | 24.27 | 4.57 | 10.87 | 11.96 | |||||
| 19:30 | Trim Market St | 3 | 29 | 31 | 66,157 | 0 | 13.05 | 0.69 | 26.55 | 61.36 | 0 | 1.43 | 4.9 | 5.39 | |||||
| 19:29 | Trim Patrick St | 3 | 30.6 | 30 | 69,355 | 0 | 41.66 | 0.53 | 38.93 | 63.51 | 23.65 | 3.71 | 10.11 | 11.12 | |||||
| 19:29 | Trim Market St | 3 | 29 | 31 | 66,169 | 0 | 11.96 | 0.69 | 26.59 | 64.5 | 0 | 1.43 | 4.36 | 4.8 | |||||
| 19:28 | Trim Patrick St | 3 | 30.7 | 30 | 69,385 | 0 | 44.31 | 0.53 | 35.13 | 75.52 | 24.92 | 4.57 | 10.11 | 11.12 | |||||
| 19:28 | Trim Market St | 3 | 29.1 | 31 | 66,184 | 0 | 12.01 | 0.68 | 27.7 | 64.77 | 0 | 1.43 | 4.91 | 7.52 | |||||